STARLINK-4710, 53799

Orbit data source: Space-Track

STARLINK-4710, 53799 is a payload satellite owned by SpaceX/Seattle (US) in LEO that was launched on Sun, 11 Sep 2022 UTC via an FALCON 9 launch vehicle from the Air Force Eastern Test Range (AFETR). Payload-class satellites include a variety of spacecraft equipped with specific instruments for various scientific and technological missions. These include communications satellites like Starlink; space stations such as the ISS; scientific satellites like the Hubble; Earth observation satellites from companies like Planet Labs, Umbra, and HawkEye 360; GPS; miniature CubeSats for education and research; and military/defense satellites.

Loading next visibility...
Identifier
53799, 2022-111AC
Orbit
LEO
Country
Flag of USUS
Related business
Manufacturer
SpaceX/Seattle
Mission
Operational Commercial Communications
Bus & Motor
STARLINK, Unknown motor
Mass
305 kg wet, ~290 kg dry
Launch date (UTC)
2022-09-11 (3 years ago)
Launch vehicle
FALCON 9
Launch site
Air Force Eastern Test Range (AFETR)
Object type
Payload
Rocket body
Debris
Shape & HBR
Box + 1 Pan, 10.1 m
Radar Cross Section
13.562 m², Large (>1 m²)

Expand to show TLE details & history
Last TLE update: 12 hours ago

TLE from 12 hours ago
0 STARLINK-4710
1 53799U 22111AC  25298.87984861 -.00000108  00000-0  11300-4 0  9996
2 53799  53.2160 149.3761 0000813  71.1890 288.9190 15.08837615173463
Epoch: 2025-10-25T21:06Z
TLE epoch observation values (Epoch: 2025-10-25T21:06:58.919Z)
Latitude
-0.00007°
Longitude
158.1265°
Altitude
540.466 km
Speed
7.593 km/s
True Right ascension
09h 57m 30s
True Declination
0° 00' 00"
Sunlit
Object was in daylight at epoch
Visualization orbit readout
Latitude
Unknown
Longitude
Unknown
Altitude
Unknown
Speed
Unknown
Apparent Right ascension
Unknown
Apparent Declination
Unknown
Sunlit
N/A
Visualization observer readout
Local Sidereal Time
04:17:23
Azimuth
Unknown
Elevation
Unknown
Doppler factor
Unknown
Orbital elements
Apogee altitude
540.558 km
Perigee altitude
539.433 km
Semi-major axis
6,918.133 km
Eccentricity
0.00008
Inclination
53.216°
RAAN
149.3761°
Arg. of periapsis
71.189°
True anomaly
288.91019°
Mean anomaly
288.919°
Eccentric anomaly
288.91459°
Mean motion
3.7719 °/min
Orbital period
95.44 mins
BSTAR
0.0000113
Loading maneuver chart data...
Computing Atmospheric mass density...

Documentation

Showing up to 5 results
|